Regional Weather Roundup
Issued by NWS

Home | Current Version | Previous Version | Text Only | Print | Product List | Glossary Off
Versions: 1 2 3 4 5 6 7 8 9 10 11 12 13 14 15 16 17 18 19 20 21 22 23 24 25 26 27 28 29 30 31 32 33 34 35 36 37 38 39 40 41 42 43 44 45 46 47 48 49 50

000
ASUS43 KOAX 170810
RWRNE

WEATHER ROUNDUP FOR NEBRASKA
NATIONAL WEATHER SERVICE OMAHA NE
300 AM CDT TUE OCT 17 2017

NOTES: SATELLITE DATA IS BEING USED TO AUGMENT CLOUD COVER ABOVE
       12000 FEET.
       "FAIR" INDICATES FEW OR NO CLOUDS BELOW 12,000 FEET WITH NO
       SIGNIFICANT WEATHER AND/OR OBSTRUCTIONS TO VISIBILITY.


NEZ001>004-019>022-054>056-170900-
NEBRASKA PANHANDLE

CITY           SKY/WX    TMP DP  RH WIND       PRES   REMARKS
SCOTTSBLUFF    CLOUDY    34  26  72 N8        30.18S WCI  27
ALLIANCE       CLOUDY    29  24  82 CALM      30.16S
CHADRON        CLEAR     34  26  72 CALM      30.14S
GORDON         FAIR      36  29  76 CALM      30.13S
KIMBALL        CLOUDY    37  24  60 W9        30.23S WCI  30
SIDNEY         CLOUDY    34  25  69 NW12      30.20S WCI  25
$$

NEZ057>060-069>072-079>082-170900-
SOUTHWEST NEBRASKA

CITY           SKY/WX    TMP DP  RH WIND       PRES   REMARKS
NORTH PLATTE   CLEAR     37  33  85 W3        30.12S
IMPERIAL       CLOUDY    40  29  64 W5        30.15R
LEXINGTON      CLEAR     41  35  80 W6        30.09R
MCCOOK         CLEAR     43  38  82 W10       30.11S
OGALLALA       CLEAR     35  32  87 SW6       30.15S WCI  30
$$

NEZ005>010-023>029-035>040-094-170900-
NORTH CENTRAL NEBRASKA

CITY           SKY/WX    TMP DP  RH WIND       PRES   REMARKS
VALENTINE      CLEAR     35  31  85 W8        30.10S WCI  29
AINSWORTH      CLEAR     43  35  74 W6        30.10S
BROKEN BOW     CLEAR     45  35  68 N7        30.08R
O`NEILL        CLEAR     44  39  82 W6        30.07R
ORD            CLEAR     39  34  82 NW5       30.06R
THEDFORD       CLEAR     41  32  69 W3        30.13S
$$

NEZ041-046>049-061>064-073>077-083>087-170900-
SOUTH CENTRAL NEBRASKA

CITY           SKY/WX    TMP DP  RH WIND       PRES   REMARKS
GRAND ISLAND   CLEAR     50  39  66 S9        30.07F
AURORA         CLEAR     51  38  62 S9        30.07F
HASTINGS       CLEAR     50  38  63 S7        30.09S
HEBRON         CLEAR     53  40  62 SW8       30.11F
HOLDREGE       CLEAR     47  37  69 SW3       30.08S
KEARNEY        CLEAR     48  37  65 SW7       30.08S
YORK           CLEAR     50  39  66 S9        30.09S
$$

NEZ011>018-030>034-042>045-170900-
NORTHEAST NEBRASKA

CITY           SKY/WX    TMP DP  RH WIND       PRES   REMARKS
NORFOLK        CLEAR     49  38  65 VRB5      30.06R
ALBION         CLEAR     48  38  67 SE3       30.06S
BLAIR          CLEAR     54  41  62 S9        30.09S
COLUMBUS       CLEAR     52  39  61 SW6       30.08S
FREMONT        CLEAR     54  39  57 CALM      30.09S
TEKAMAH        CLEAR     52  32  46 S8        30.07F
WAYNE          CLEAR     43  40  91 S5        30.05S
$$

NEZ050>053-065>068-078-088>093-170900-
SOUTHEAST NEBRASKA

CITY           SKY/WX    TMP DP  RH WIND       PRES   REMARKS
LINCOLN        CLEAR     55  40  56 S13       30.11S
OMAHA EPPLEY   CLEAR     49  41  74 S10       30.11S
BEATRICE       PTCLDY    54  41  62 S10G17    30.13S
FALLS CITY     PTCLDY    50  40  68 S7        30.15F
NEBRASKA CITY  PTCLDY    49  41  73 S9        30.13S
PLATTSMOUTH    CLEAR     51  41  70 S10       30.11S
$$

NEZ044-045-051>053-067-170900-
OMAHA AREA

CITY           SKY/WX    TMP DP  RH WIND       PRES   REMARKS
OMAHA EPPLEY   CLEAR     49  41  74 S10       30.11S
BLAIR          CLEAR     54  41  62 S9        30.09S
FREMONT        CLEAR     54  39  57 CALM      30.09S
MILLARD        CLEAR     50  42  74 SE3       30.10F
PLATTSMOUTH    CLEAR     51  41  70 S10       30.11S
WAHOO          FAIR      52  39  62 S6        30.09S
$$




USA.gov is the U.S. government's official web portal to all federal, state and local government web resources and services.